Location: Bothell
(47.7630°N, 122.2040°W)
Time: 23:20:01
(UTC-08:00)

Amateur Radio Satellites - All Passes

Search period start: 18 December 2014 22:50
Search period end: 19 December 2014 22:50
Location: Bothell, 47.7630°N, 122.2040°W

Satellite Date Start Highest point End Downlink Frequencies (MHz)
Time Altitude Azimuth
BEESAT 3 18 Dec 22:51:57 22:55:56 43° 240° (WSW) 22:59:51 437.485
ZACube-1 18 Dec 22:53:00 22:55:10 14° 272° (W) 22:57:22 437.345
POPSAT HIP 1 18 Dec 22:54:56 22:59:04 47° 99° (E) 23:03:12 437.405
M-CUBED/EXP-1 PRIME 18 Dec 22:55:20 22:56:18 11° 46° (NE) 22:57:16 437.505
UNISAT 6 18 Dec 22:59:29 23:04:12 81° 103° (ESE) 23:08:56 437.425
ITUPSAT 1 18 Dec 23:17:22 23:20:22 17° 58° (ENE) 23:23:22 437.325
SWISSCUBE 18 Dec 23:17:27 23:20:40 18° 59° (ENE) 23:23:52 437.505
SPROUT 18 Dec 23:20:00 23:24:16 73° 74° (ENE) 23:28:33 437.525
TISAT 1 18 Dec 23:23:07 23:27:19 86° 75° (ENE) 23:31:33 437.305
DUCHIFAT 1 18 Dec 23:23:55 23:28:11 86° 285° (WNW) 23:32:27 145.980
BEESAT 2 18 Dec 23:30:36 23:33:50 22° 246° (WSW) 23:37:01 435.950
ANTELSAT 18 Dec 23:31:21 23:35:55 52° 289° (WNW) 23:40:30 437.575/2403.000
AISAT 18 Dec 23:32:01 23:32:25 10° 273° (W) 23:32:48 437.250
BUGSAT 1 18 Dec 23:32:30 23:36:34 85° 285° (WNW) 23:40:37 437.445
QB50P2 18 Dec 23:36:05 23:40:19 64° 287° (WNW) 23:44:33 145.880/145.840
PCSat 18 Dec 23:40:05 23:45:21 52° 243° (WSW) 23:50:34 145.827
SO-50 18 Dec 23:40:23 23:44:11 24° 326° (NNW) 23:48:06 436.795
BEESAT 18 Dec 23:41:55 23:45:53 27° 63° (ENE) 23:49:52 436.000
CUBEBUG 1 18 Dec 23:41:59 23:45:05 19° 268° (W) 23:48:12 437.445
POLYITAN 1 18 Dec 23:44:16 23:48:26 53° 289° (WNW) 23:52:37 437.675
NANOSAT C BR1 18 Dec 23:48:18 23:52:24 48° 289° (WNW) 23:56:30 145.865
AUBIESAT-1 19 Dec 00:01:56 00:06:12 32° 59° (ENE) 00:10:30 437.475
QB50P1 19 Dec 00:02:32 00:06:25 35° 292° (WNW) 00:10:18 145.935-145.965
TIGRISAT 19 Dec 00:08:41 00:12:31 26° 296° (WNW) 00:16:22 435.000
M-CUBED/EXP-1 PRIME 19 Dec 00:25:33 00:30:16 53° 65° (ENE) 00:35:04 437.505
AIST 2 19 Dec 00:27:22 00:29:32 14° 250° (WSW) 00:31:41 435.215
YUBILEINY 19 Dec 00:30:07 00:38:53 86° 279° (W) 00:47:40 435.215
POPSAT HIP 1 19 Dec 00:31:34 00:34:41 20° 297° (WNW) 00:37:48 437.405
UNISAT 6 19 Dec 00:37:42 00:40:23 15° 302° (WNW) 00:43:05 437.425
ITUPSAT 1 19 Dec 00:52:53 00:57:41 76° 256° (WSW) 01:02:32 437.325
SWISSCUBE 19 Dec 00:53:14 00:58:01 69° 257° (WSW) 01:02:50 437.505
SPROUT 19 Dec 00:59:03 01:00:53 12° 272° (W) 01:02:43 437.525
O/OREOS (USA 219) 19 Dec 00:59:34 01:03:51 49° 110° (ESE) 01:08:10 437.305
DUCHIFAT 1 19 Dec 01:02:01 01:03:23 11° 303° (WNW) 01:04:44 145.980
TISAT 1 19 Dec 01:03:22 01:03:46 10° 273° (W) 01:04:11 437.305
BUGSAT 1 19 Dec 01:10:45 01:11:23 10° 303° (WNW) 01:12:01 437.445
KKS-1 19 Dec 01:15:29 01:19:40 43° 69° (ENE) 01:23:53 437.445
STARS 19 Dec 01:16:13 01:20:03 31° 66° (ENE) 01:23:55 437.465
BEESAT 19 Dec 01:18:58 01:23:32 43° 261° (W) 01:28:07 436.000
Gurwin Techsat 1B 19 Dec 01:23:07 01:24:51 12° 85° (E) 01:26:35 435.225
Oscar 19 19 Dec 01:24:48 01:29:50 46° 99° (E) 01:34:49 437.125/150
SO-50 19 Dec 01:24:59 01:26:27 11° 351° (N) 01:27:56 436.795
AUBIESAT-1 19 Dec 01:36:27 01:41:00 41° 257° (WSW) 01:45:39 437.475
ITAMSAT 1 19 Dec 01:36:58 01:41:06 24° 93° (E) 01:45:14 435.822/435.867
M-CUBED/EXP-1 PRIME 19 Dec 02:01:38 02:05:31 24° 263° (W) 02:09:28 437.505
AIST 1 19 Dec 02:21:23 02:23:29 13° 64° (ENE) 02:25:34
YUBILEINY 19 Dec 02:30:35 02:37:06 23° 303° (WNW) 02:43:40 435.215
HORYU 2 19 Dec 02:34:03 02:37:15 19° 91° (E) 02:40:26 437.375
O/OREOS (USA 219) 19 Dec 02:39:57 02:43:32 23° 309° (NW) 02:47:08 437.305
STARS 19 Dec 02:52:38 02:56:31 31° 264° (W) 03:00:26 437.465
AO-7 19 Dec 02:52:57 02:58:19 18° 87° (E) 03:03:38 29.400- 29.500
KKS-1 19 Dec 02:53:02 02:56:30 22° 267° (W) 03:00:00 437.445
Gurwin Techsat 1B 19 Dec 03:00:21 03:05:42 79° 104° (ESE) 03:11:00 435.225
Oscar 19 19 Dec 03:04:34 03:08:57 28° 297° (WNW) 03:13:20 437.125/150
SO-50 19 Dec 03:06:58 03:09:09 13° 16° (NNE) 03:11:21 436.795
ITAMSAT 1 19 Dec 03:15:53 03:20:54 52° 291° (WNW) 03:25:53 435.822/435.867
MOZHAYETS 4 19 Dec 03:48:20 03:52:52 55° 71° (ENE) 03:57:26
AIST 1 19 Dec 03:57:25 04:01:42 71° 263° (W) 04:05:56
HORYU 2 19 Dec 04:09:49 04:14:15 53° 289° (WNW) 04:18:38 437.375
GONETS M04 19 Dec 04:30:39 04:37:37 27° 79° (E) 04:44:35
VERMONT LUNAR 19 Dec 04:37:22 04:39:52 18° 164° (SSE) 04:42:23 437.305
STRAND 1 19 Dec 04:37:53 04:41:18 18° 58° (ENE) 04:44:43 437.568
Gurwin Techsat 1B 19 Dec 04:41:30 04:45:04 19° 303° (WNW) 04:48:37 435.225
PHONESAT 2.4 19 Dec 04:43:21 04:45:41 16° 161° (SSE) 04:48:02 2401.200-2431.200
AO-7 19 Dec 04:44:01 04:52:27 78° 108° (ESE) 05:00:49 29.400- 29.500
SO-50 19 Dec 04:46:46 04:51:10 33° 39° (NE) 04:55:36 436.795
JAS-2 19 Dec 05:06:44 05:12:28 54° 99° (E) 05:17:40 435.910
CUBESAT XI-V 19 Dec 05:07:11 05:11:14 30° 66° (ENE) 05:15:17 437.345
PRISM 19 Dec 05:10:01 05:14:12 63° 72° (ENE) 05:18:24 437.425
MOZHAYETS 4 19 Dec 05:27:07 05:30:26 19° 269° (W) 05:33:47
Cubesat XI-IV 19 Dec 05:58:07 06:03:00 36° 96° (E) 06:07:51 437.490
VERMONT LUNAR 19 Dec 06:14:38 06:17:36 25° 181° (S) 06:20:34 437.305
STRAND 1 19 Dec 06:14:49 06:19:56 76° 256° (WSW) 06:25:04 437.568
PHONESAT 2.4 19 Dec 06:20:41 06:23:44 26° 178° (S) 06:26:48 2401.200-2431.200
GONETS M04 19 Dec 06:24:43 06:33:33 76° 281° (W) 06:42:27
SO-50 19 Dec 06:27:12 06:31:56 51° 239° (WSW) 06:36:41 436.795
CUTE-I 19 Dec 06:31:39 06:36:57 67° 102° (ESE) 06:42:14 437.470
AO-7 19 Dec 06:37:31 06:44:31 31° 309° (NW) 06:51:30 29.400- 29.500
CUBESAT XI-V 19 Dec 06:44:19 06:48:36 35° 264° (W) 06:52:54 437.345
PRISM 19 Dec 06:47:50 06:50:09 14° 270° (W) 06:52:29 437.425
JAS-2 19 Dec 06:52:25 06:57:11 26° 302° (WNW) 07:01:36 435.910
Cubesat XI-IV 19 Dec 07:38:15 07:43:06 37° 295° (WNW) 07:47:55 437.490
VERMONT LUNAR 19 Dec 07:52:58 07:55:18 17° 198° (SSW) 07:57:39 437.305
HO-68 19 Dec 07:58:45 08:04:16 23° 91° (E) 08:09:45 435.675
STRAND 1 19 Dec 07:59:07 08:00:00 10° 275° (W) 08:00:53 437.568
PHONESAT 2.4 19 Dec 07:59:08 08:01:51 20° 195° (SSW) 08:04:33 2401.200-2431.200
SEEDS 19 Dec 08:02:25 08:04:24 13° 88° (E) 08:06:22 437.485
CUTE 1.7 + AOD 2 19 Dec 08:03:19 08:05:53 15° 89° (E) 08:08:27 437.475
CUTE-I 19 Dec 08:12:38 08:16:33 21° 301° (WNW) 08:20:28 437.470
DOVE 4 19 Dec 08:13:52 08:16:16 14° 89° (E) 08:18:44 437.250
GONETS M04 19 Dec 08:26:00 08:32:07 20° 306° (NW) 08:38:15
UNISAT 6 19 Dec 08:27:50 08:30:16 15° 58° (ENE) 08:32:43 437.425
Oscar 11 19 Dec 08:35:30 08:36:46 11° 87° (E) 08:38:01 145.826/435.025
CUSAT 1 19 Dec 08:39:46 08:41:31 13° 77° (ENE) 08:43:28 437.405
YUBILEINY 19 Dec 08:41:10 08:45:33 14° 48° (NE) 08:49:55 435.215
BRITE-PL 19 Dec 08:43:31 08:47:55 44° 99° (E) 08:52:39 437.365/2234.400
DUCHIFAT 1 19 Dec 08:46:43 08:48:52 14° 59° (ENE) 08:51:01 145.980
CINEMA 3 19 Dec 08:49:45 08:53:04 19° 91° (E) 08:56:27 145.822/145.860
BUGSAT 1 19 Dec 08:53:22 08:55:10 13° 59° (ENE) 08:56:59 437.445
ANTELSAT 19 Dec 08:58:03 09:01:44 27° 64° (ENE) 09:05:29 437.575/2403.000
QB50P2 19 Dec 08:58:18 09:01:10 18° 62° (ENE) 09:04:03 145.880/145.840
AAUSAT CUBESAT 2 19 Dec 08:58:49 09:02:45 35° 97° (E) 09:06:39 437.432
ZACube-1 19 Dec 09:02:06 09:03:08 11° 86° (E) 09:04:10 437.345
POLYITAN 1 19 Dec 09:06:13 09:09:24 21° 63° (ENE) 09:12:36 437.675
CANX-2 19 Dec 09:06:50 09:11:10 72° 102° (ESE) 09:15:29 2200.000
NANOSAT C BR1 19 Dec 09:09:40 09:12:56 22° 64° (ENE) 09:16:14 145.865
GOMX 1 19 Dec 09:17:38 09:22:16 68° 102° (ESE) 09:27:14 467.674
DANDE 19 Dec 09:22:29 09:25:33 26° 86° (E) 09:29:25 436.750
QB50P1 19 Dec 09:23:19 09:26:59 30° 66° (ENE) 09:30:41 145.935-145.965
UWE-3 19 Dec 09:24:13 09:27:44 22° 92° (E) 09:31:17 435.000/436.395/437.385
O/OREOS (USA 219) 19 Dec 09:27:08 09:30:50 24° 51° (NE) 09:34:32 437.305
FUNcube-1 19 Dec 09:27:26 09:30:42 19° 91° (E) 09:33:59 145.935
COMPASS 1 19 Dec 09:32:53 09:37:11 90° 299° (WNW) 09:41:26 437.405
TIGRISAT 19 Dec 09:33:48 09:38:03 55° 71° (ENE) 09:42:27 435.000
SEEDS 19 Dec 09:36:26 09:40:44 72° 286° (WNW) 09:45:00 437.485
CUTE 1.7 + AOD 2 19 Dec 09:37:57 09:42:13 61° 287° (WNW) 09:46:28 437.475
AISAT 19 Dec 09:39:58 09:42:21 14° 89° (E) 09:44:44 437.250
DX 1 19 Dec 09:44:11 09:48:18 40° 99° (E) 09:52:23 434.975-435.025
HO-68 19 Dec 09:45:33 09:52:43 78° 290° (WNW) 09:59:50 435.675
MaSat-1 19 Dec 09:46:26 09:48:39 45° 302° (WNW) 09:50:50 437.345
DOVE 4 19 Dec 09:49:51 09:54:32 80° 285° (WNW) 09:59:30 437.250
POPSAT HIP 1 19 Dec 09:51:17 09:55:24 56° 72° (ENE) 09:59:32 437.405
DELFI C3 19 Dec 09:58:15 10:02:22 65° 101° (ESE) 10:06:27 145.870
50 SAT 19 Dec 10:01:13 10:04:14 19° 92° (E) 10:07:14 437.505
UNISAT 6 19 Dec 10:02:04 10:06:27 77° 257° (WSW) 10:10:58 437.425
Oscar 11 19 Dec 10:09:09 10:13:33 85° 285° (WNW) 10:17:55 145.826/435.025
HUMSAT D 19 Dec 10:11:35 10:15:27 31° 96° (E) 10:19:18 437.325/437.525
UKube-1 19 Dec 10:16:44 10:21:06 84° 104° (ESE) 10:25:26 .
CUBEBUG 2 19 Dec 10:18:44 10:23:20 81° 103° (ESE) 10:28:04 437.445
CUSAT 1 19 Dec 10:19:49 10:23:30 61° 286° (WNW) 10:28:31 437.405
DUCHIFAT 1 19 Dec 10:19:59 10:24:11 74° 257° (WSW) 10:28:24 145.980
BRITE-PL 19 Dec 10:22:34 10:26:17 25° 295° (WNW) 10:30:13 437.365/2234.400
CINEMA 3 19 Dec 10:26:00 10:30:35 59° 288° (WNW) 10:35:21 145.822/145.860
BUGSAT 1 19 Dec 10:26:01 10:30:07 77° 257° (WSW) 10:34:13 437.445
RS-15 19 Dec 10:28:21 10:35:48 22° 99° (E) 10:43:14 29.354- 29.394
ESTCUBE 1 19 Dec 10:30:41 10:33:58 20° 92° (E) 10:37:13 437.505/2401.250
QB50P2 19 Dec 10:32:36 10:36:43 53° 260° (W) 10:40:53 145.880/145.840
VELOX 1 19 Dec 10:32:43 10:36:58 45° 99° (E) 10:41:12 145.980
ANTELSAT 19 Dec 10:34:20 10:38:23 37° 263° (W) 10:42:34 437.575/2403.000
AAUSAT CUBESAT 2 19 Dec 10:34:46 10:38:17 26° 295° (WNW) 10:41:47 437.432
ZACube-1 19 Dec 10:35:37 10:40:09 88° 104° (ESE) 10:44:44 437.345
YUBILEINY 19 Dec 10:36:08 10:44:43 57° 74° (ENE) 10:53:14 435.215
POLYITAN 1 19 Dec 10:41:04 10:45:05 43° 261° (W) 10:49:09 437.675
CANX-2 19 Dec 10:44:09 10:46:34 15° 300° (WNW) 10:48:59 2200.000
NANOSAT C BR1 19 Dec 10:44:38 10:48:36 40° 262° (W) 10:52:37 145.865
GOMX 1 19 Dec 10:56:56 11:00:00 18° 298° (WNW) 11:03:11 467.674
QB50P1 19 Dec 10:59:10 11:02:52 29° 264° (W) 11:06:35 145.935-145.965
UWE-3 19 Dec 11:00:07 11:04:30 48° 289° (WNW) 11:08:57 435.000/436.395/437.385
FUNcube-1 19 Dec 11:02:57 11:07:20 52° 289° (WNW) 11:11:45 145.935
DANDE 19 Dec 11:05:46 11:08:59 26° 297° (WNW) 11:13:04 436.750
O/OREOS (USA 219) 19 Dec 11:06:08 11:10:28 47° 251° (WSW) 11:14:48 437.305
SPROUT 19 Dec 11:06:38 11:07:04 10° 87° (E) 11:07:31 437.525
TISAT 1 19 Dec 11:07:17 11:08:23 11° 88° (E) 11:09:30 437.305
Oscar 19 19 Dec 11:08:31 11:11:33 16° 56° (NE) 11:14:36 437.125/150
COMPASS 1 19 Dec 11:10:39 11:12:14 12° 302° (WNW) 11:13:49 437.405
TIGRISAT 19 Dec 11:12:19 11:15:12 17° 270° (W) 11:18:08 435.000
AISAT 19 Dec 11:15:03 11:19:28 69° 287° (WNW) 11:23:52 437.250
DX 1 19 Dec 11:20:51 11:24:21 24° 297° (WNW) 11:27:50 434.975-435.025
CUBEBUG 1 19 Dec 11:26:05 11:30:24 63° 102° (ESE) 11:34:42 437.445
POPSAT HIP 1 19 Dec 11:29:06 11:31:40 16° 270° (W) 11:34:15 437.405
DOVE 4 19 Dec 11:29:45 11:31:39 12° 302° (WNW) 11:33:35 437.250
HO-68 19 Dec 11:34:32 11:39:22 20° 311° (NW) 11:44:12 435.675
DELFI C3 19 Dec 11:34:48 11:37:10 15° 300° (WNW) 11:39:31 145.870
50 SAT 19 Dec 11:35:43 11:39:41 44° 290° (WNW) 11:43:38 437.505
HUMSAT D 19 Dec 11:47:26 11:51:12 30° 293° (WNW) 11:55:00 437.325/437.525
Oscar 11 19 Dec 11:47:29 11:49:00 12° 303° (WNW) 11:50:31 145.826/435.025
UKube-1 19 Dec 11:54:35 11:56:38 13° 303° (WNW) 11:58:41 .
CUBEBUG 2 19 Dec 11:56:55 11:59:29 15° 301° (WNW) 12:02:05 437.445
ESTCUBE 1 19 Dec 12:06:46 12:11:08 50° 290° (WNW) 12:15:28 437.505/2401.250
AO-7 19 Dec 12:09:23 12:12:09 12° 30° (NNE) 12:14:54 29.400- 29.500
VELOX 1 19 Dec 12:09:52 12:13:19 23° 297° (WNW) 12:16:45 145.980
ZACube-1 19 Dec 12:13:44 12:15:54 13° 302° (WNW) 12:18:04 437.345
YUBILEINY 19 Dec 12:33:29 12:41:09 37° 276° (W) 12:48:48 435.215
RS-15 19 Dec 12:35:22 12:46:16 79° 123° (ESE) 12:57:16 29.354- 29.394
SPROUT 19 Dec 12:39:29 12:43:48 89° 285° (WNW) 12:48:07 437.525
TISAT 1 19 Dec 12:40:33 12:44:48 82° 285° (WNW) 12:49:01 437.305
Oscar 19 19 Dec 12:45:02 12:50:11 89° 255° (WSW) 12:55:24 437.125/150
PCSat 19 Dec 12:45:40 12:47:32 12° 102° (ESE) 12:49:26 145.827
Gurwin Techsat 1B 19 Dec 12:46:17 12:50:41 27° 62° (ENE) 12:55:06 435.225
SWISSCUBE 19 Dec 12:50:54 12:54:46 24° 93° (E) 12:58:35 437.505
ITUPSAT 1 19 Dec 12:50:56 12:54:38 22° 92° (E) 12:58:18 437.325
BEESAT 3 19 Dec 12:51:04 12:53:33 16° 111° (ESE) 12:56:03 437.485
ITAMSAT 1 19 Dec 12:58:03 13:03:03 51° 69° (ENE) 13:08:03 435.822/435.867
CUBEBUG 1 19 Dec 13:03:37 13:06:20 17° 300° (WNW) 13:09:02 437.445
BEESAT 19 Dec 13:15:49 13:20:16 37° 97° (E) 13:24:40 436.000
AUBIESAT-1 19 Dec 13:17:55 13:19:49 13° 92° (E) 13:21:38 437.475
BEESAT 2 19 Dec 13:28:19 13:31:59 31° 117° (ESE) 13:35:42 435.950
HORYU 2 19 Dec 13:35:49 13:39:33 27° 64° (ENE) 13:43:20 437.375
M-CUBED/EXP-1 PRIME 19 Dec 13:41:17 13:44:55 24° 97° (E) 13:48:18 437.505
JAS-2 19 Dec 13:43:35 13:44:08 10° 45° (NE) 13:44:41 435.910
AO-7 19 Dec 13:55:09 14:02:34 38° 55° (NE) 14:10:01 29.400- 29.500
SPROUT 19 Dec 14:17:38 14:19:13 12° 303° (WNW) 14:20:49 437.525
TISAT 1 19 Dec 14:18:57 14:19:55 11° 304° (WNW) 14:20:53 437.305
PCSat 19 Dec 14:24:36 14:29:59 74° 120° (ESE) 14:35:25 145.827
Gurwin Techsat 1B 19 Dec 14:25:15 14:30:24 50° 261° (W) 14:35:34 435.225
AIST 2 19 Dec 14:26:47 14:30:57 57° 122° (ESE) 14:35:11 435.215
BEESAT 3 19 Dec 14:27:07 14:31:14 68° 310° (NW) 14:35:25 437.485
Oscar 19 19 Dec 14:27:58 14:30:17 13° 273° (W) 14:32:37 437.125/150
ITUPSAT 1 19 Dec 14:28:11 14:32:48 50° 291° (WNW) 14:37:23 437.325
SWISSCUBE 19 Dec 14:28:17 14:32:50 45° 291° (WNW) 14:37:21 437.505
GONETS M04 19 Dec 14:35:24 14:40:46 17° 51° (NE) 14:46:05
ITAMSAT 1 19 Dec 14:38:37 14:42:48 25° 267° (W) 14:47:01 435.822/435.867
STARS 19 Dec 14:38:47 14:42:55 37° 98° (E) 14:47:03 437.465
KKS-1 19 Dec 14:39:39 14:44:04 55° 101° (E) 14:48:27 437.445
RS-15 19 Dec 14:49:23 14:59:40 44° 331° (NNW) 15:10:12 29.354- 29.394
ISS 19 Dec 14:50:45 14:53:59 53° 149° (SSE) 14:57:12 145.825
AUBIESAT-1 19 Dec 14:50:56 14:55:27 77° 292° (WNW) 14:59:32 437.475
BEESAT 19 Dec 14:53:52 14:58:00 30° 296° (WNW) 15:02:07 436.000
BEESAT 2 19 Dec 15:06:19 15:10:11 36° 317° (NW) 15:14:06 435.950
HORYU 2 19 Dec 15:11:56 15:16:05 37° 262° (W) 15:20:17 437.375
M-CUBED/EXP-1 PRIME 19 Dec 15:15:51 15:20:08 41° 298° (WNW) 15:24:03 437.505
JAS-2 19 Dec 15:20:40 15:27:37 42° 65° (ENE) 15:33:59 435.910
MOZHAYETS 4 19 Dec 15:43:27 15:43:57 10° 85° (E) 15:44:26
AO-7 19 Dec 15:46:44 15:54:58 63° 256° (WSW) 16:03:17 29.400- 29.500
Cubesat XI-IV 19 Dec 15:46:45 15:49:34 15° 54° (NE) 15:52:24 437.490
AIST 2 19 Dec 16:06:18 16:09:53 25° 323° (NW) 16:13:31 435.215
BEESAT 3 19 Dec 16:07:38 16:10:12 16° 331° (NNW) 16:12:46 437.485
PCSat 19 Dec 16:09:26 16:13:57 26° 322° (NW) 16:18:30 145.827
STARS 19 Dec 16:15:34 16:19:16 27° 296° (WNW) 16:22:58 437.465
KKS-1 19 Dec 16:17:09 16:20:20 19° 299° (WNW) 16:23:31 437.445
CUTE-I 19 Dec 16:18:34 16:22:48 25° 60° (ENE) 16:27:03 437.470
ISS 19 Dec 16:27:25 16:30:37 47° 349° (NNW) 16:33:50 145.825
AUBIESAT-1 19 Dec 16:27:44 16:29:32 12° 312° (NW) 16:31:17 437.475
AIST 1 19 Dec 16:30:16 16:34:33 56° 95° (E) 16:38:50
GONETS M04 19 Dec 16:30:52 16:39:39 67° 76° (ENE) 16:48:17
BEESAT 2 19 Dec 16:48:20 16:49:38 11° 339° (NNW) 16:50:56 435.950
JAS-2 19 Dec 17:05:15 17:12:34 48° 262° (W) 17:19:18 435.910
RS-15 19 Dec 17:05:57 17:15:35 33° 5° (N) 17:25:29 29.354- 29.394
MOZHAYETS 4 19 Dec 17:17:15 17:21:56 83° 103° (ESE) 17:26:32
Cubesat XI-IV 19 Dec 17:23:31 17:28:51 80° 73° (ENE) 17:34:12 437.490
MaSat-1 19 Dec 17:41:02 17:43:08 28° 56° (NE) 17:45:20 437.345
AO-7 19 Dec 17:45:55 17:49:29 13° 277° (W) 17:53:04 29.400- 29.500
CUTE-I 19 Dec 17:57:19 18:02:32 56° 259° (W) 18:07:47 437.470
PCSat 19 Dec 17:58:02 17:59:23 11° 347° (NNW) 18:00:44 145.827
ISS 19 Dec 18:04:24 18:07:35 44° 9° (N) 18:10:45 145.825
AIST 1 19 Dec 18:09:46 18:12:36 17° 294° (WNW) 18:15:27
DANDE 19 Dec 18:16:11 18:19:13 13° 53° (NE) 18:22:27 436.750
STRAND 1 19 Dec 18:22:19 18:26:42 28° 94° (E) 18:31:04 437.568
PRISM 19 Dec 18:25:18 18:29:28 66° 102° (ESE) 18:33:34 437.425
GONETS M04 19 Dec 18:28:29 18:35:50 32° 279° (W) 18:43:07
CANX-2 19 Dec 18:31:17 18:32:12 11° 56° (ENE) 18:33:06 2200.000
HO-68 19 Dec 18:31:21 18:37:11 28° 54° (NE) 18:43:01 435.675
CUBESAT XI-V 19 Dec 18:37:20 18:41:46 45° 98° (E) 18:46:10 437.345
GOMX 1 19 Dec 18:54:48 18:56:35 13° 58° (ENE) 18:58:22 467.674
COMPASS 1 19 Dec 18:55:02 18:56:49 13° 58° (ENE) 18:58:36 437.405
MOZHAYETS 4 19 Dec 18:56:02 18:58:31 15° 302° (WNW) 19:00:59
SEEDS 19 Dec 18:58:19 19:00:51 16° 60° (ENE) 19:03:23 437.485
CUTE 1.7 + AOD 2 19 Dec 18:59:56 19:02:51 18° 62° (ENE) 19:05:48 437.475
Cubesat XI-IV 19 Dec 19:06:24 19:09:35 16° 272° (W) 19:12:47 437.490
CUSAT 1 19 Dec 19:10:35 19:16:58 31° 65° (ENE) 19:24:08 437.405
RS-15 19 Dec 19:20:12 19:31:04 54° 37° (NE) 19:42:21 29.354- 29.394
DOVE 4 19 Dec 19:23:37 19:26:25 18° 61° (ENE) 19:29:16 437.250
BEESAT 3 19 Dec 19:29:29 19:30:24 11° 20° (NNE) 19:31:19 437.485
Oscar 11 19 Dec 19:33:23 19:35:50 15° 59° (ENE) 19:38:19 145.826/435.025
ISS 19 Dec 19:41:02 19:44:18 67° 208° (SSW) 19:47:33 145.825
UKube-1 19 Dec 19:41:23 19:43:47 15° 58° (ENE) 19:46:11 .
PCSat 19 Dec 19:43:57 19:45:30 11° 14° (NNE) 19:47:02 145.827
CUBEBUG 2 19 Dec 19:46:59 19:48:54 13° 58° (ENE) 19:50:49 437.445
AAUSAT CUBESAT 2 19 Dec 19:53:24 19:57:19 38° 69° (ENE) 20:01:15 437.432
CINEMA 3 19 Dec 19:55:37 19:58:54 23° 64° (ENE) 20:02:15 145.822/145.860
DANDE 19 Dec 19:57:09 20:04:12 50° 72° (ENE) 20:12:27 436.750
BRITE-PL 19 Dec 19:58:33 20:02:41 70° 74° (ENE) 20:06:50 437.365/2234.400
STRAND 1 19 Dec 20:01:15 20:06:03 43° 293° (WNW) 20:10:49 437.568
ZACube-1 19 Dec 20:01:39 20:03:42 13° 58° (ENE) 20:05:46 437.345
PRISM 19 Dec 20:02:07 20:04:31 15° 301° (WNW) 20:06:54 437.425
CANX-2 19 Dec 20:03:06 20:07:22 79° 75° (ENE) 20:11:42 2200.000
BEESAT 2 19 Dec 20:07:33 20:10:00 15° 28° (NNE) 20:12:26 435.950
CUBESAT XI-V 19 Dec 20:15:18 20:18:59 24° 297° (WNW) 20:22:38 437.345
HO-68 19 Dec 20:17:06 20:24:17 75° 255° (WSW) 20:31:30 435.675
UWE-3 19 Dec 20:25:20 20:28:46 25° 65° (ENE) 20:32:17 435.000/436.395/437.385
FUNcube-1 19 Dec 20:27:13 20:30:29 22° 64° (ENE) 20:33:49 145.935
COMPASS 1 19 Dec 20:27:40 20:31:54 85° 257° (WSW) 20:36:11 437.405
GOMX 1 19 Dec 20:29:59 20:34:08 78° 257° (WSW) 20:38:20 467.674
SEEDS 19 Dec 20:31:58 20:36:11 66° 259° (WSW) 20:40:28 437.485
CUTE 1.7 + AOD 2 19 Dec 20:34:13 20:38:24 54° 260° (W) 20:42:39 437.475
AISAT 19 Dec 20:41:21 20:44:39 21° 62° (ENE) 20:47:58 437.250
DX 1 19 Dec 20:43:04 20:47:18 55° 71° (ENE) 20:51:33 434.975-435.025
SO-50 19 Dec 20:45:45 20:49:23 24° 114° (ESE) 20:53:08 436.795
DELFI C3 19 Dec 20:49:57 20:54:01 65° 74° (ENE) 20:58:09 145.870
CUBEBUG 1 19 Dec 20:53:02 20:54:20 11° 56° (NE) 20:55:38 437.445
CUSAT 1 19 Dec 20:53:10 21:00:34 73° 262° (W) 21:09:01 437.405
50 SAT 19 Dec 20:53:17 20:56:14 20° 63° (ENE) 20:59:14 437.505
DOVE 4 19 Dec 20:59:50 21:03:51 50° 261° (W) 21:07:59 437.250
BEESAT 3 19 Dec 21:06:00 21:09:50 33° 42° (NE) 21:13:38 437.485
Oscar 11 19 Dec 21:07:09 21:11:28 72° 258° (WSW) 21:15:51 145.826/435.025
HUMSAT D 19 Dec 21:07:22 21:11:05 33° 68° (ENE) 21:14:52 437.325/437.525
AIST 2 19 Dec 21:07:40 21:11:00 21° 34° (NE) 21:14:19 435.215
UKube-1 19 Dec 21:15:04 21:19:24 74° 257° (WSW) 21:23:45 .
ISS 19 Dec 21:18:56 21:20:22 12° 226° (SW) 21:21:47 145.825
CUBEBUG 2 19 Dec 21:20:47 21:24:58 81° 257° (WSW) 21:29:17 437.445
PCSat 19 Dec 21:26:15 21:30:52 27° 39° (NE) 21:35:28 145.827
AAUSAT CUBESAT 2 19 Dec 21:29:45 21:33:07 23° 267° (W) 21:36:30 437.432
CINEMA 3 19 Dec 21:32:01 21:35:55 39° 263° (W) 21:39:56 145.822/145.860
RS-15 19 Dec 21:32:53 21:43:50 62° 243° (WSW) 21:55:18 29.354- 29.394
ESTCUBE 1 19 Dec 21:33:41 21:37:33 28° 65° (ENE) 21:41:25 437.505/2401.250
VELOX 1 19 Dec 21:33:50 21:38:12 62° 72° (ENE) 21:42:35 145.980
ZACube-1 19 Dec 21:35:17 21:39:28 78° 257° (WSW) 21:43:46 437.345
BRITE-PL 19 Dec 21:40:15 21:41:46 12° 272° (W) 21:43:18 437.365/2234.400
DANDE 19 Dec 21:40:46 21:47:40 44° 268° (W) 21:55:36 436.750
CANX-2 19 Dec 21:42:24 21:43:53 12° 273° (W) 21:45:24 2200.000
BEESAT 2 19 Dec 21:44:55 21:49:06 61° 49° (NE) 21:53:14 435.950
UNISAT 6 19 Dec 21:51:35 21:54:57 19° 91° (E) 21:58:19 437.425
YUBILEINY 19 Dec 21:51:58 21:54:44 12° 69° (ENE) 21:57:29 435.215
UWE-3 19 Dec 22:01:19 22:05:10 36° 263° (W) 22:09:09 435.000/436.395/437.385
FUNcube-1 19 Dec 22:02:40 22:06:37 41° 262° (W) 22:10:40 145.935
TISAT 1 19 Dec 22:02:57 22:05:16 15° 59° (ENE) 22:07:35 437.305
DUCHIFAT 1 19 Dec 22:03:15 22:05:36 14° 90° (E) 22:07:57 145.980
SPROUT 19 Dec 22:03:32 22:05:44 14° 59° (ENE) 22:07:57 437.525
BUGSAT 1 19 Dec 22:07:10 22:08:43 12° 89° (E) 22:10:16 437.445
HO-68 19 Dec 22:09:23 22:13:13 15° 275° (W) 22:17:04 435.675
QB50P2 19 Dec 22:15:32 22:18:40 20° 92° (E) 22:21:49 145.880/145.840
AISAT 19 Dec 22:16:42 22:20:59 49° 260° (W) 22:25:17 437.250
DX 1 19 Dec 22:21:01 22:23:53 17° 269° (W) 22:26:45 434.975-435.025
ANTELSAT 19 Dec 22:22:44 22:27:06 37° 97° (E) 22:31:28 437.575/2403.000
POLYITAN 1 19 Dec 22:23:48 22:27:17 24° 94° (E) 22:30:46 437.675
SO-50 19 Dec 22:25:07 22:29:37 54° 314° (NW) 22:34:17 436.795
CUBEBUG 1 19 Dec 22:25:37 22:29:59 81° 74° (ENE) 22:34:22 437.445
NANOSAT C BR1 19 Dec 22:26:46 22:30:18 25° 94° (E) 22:33:49 145.865
50 SAT 19 Dec 22:27:22 22:31:12 42° 262° (W) 22:35:06 437.505
DELFI C3 19 Dec 22:27:43 22:29:45 13° 271° (W) 22:31:47 145.870
CUSAT 1 19 Dec 22:38:05 22:42:45 18° 279° (W) 22:47:45 437.405
QB50P1 19 Dec 22:40:46 22:44:40 34° 97° (E) 22:48:34 145.935-145.965
